Location: Borgo
(42.3939°N, 9.2791°E)
Time: 17:11:12
(UTC+00:00)

YAOGAN 1 - Pass Details

Date: 24 January 2021
Orbit: 618 x 620 km, 97.9° (Epoch: 02 March)

Event Time Altitude Azimuth Distance (km) Brightness Sun altitude
Rises 17:59:31 0° 163° (SSE) 2,883 5.9 -17.1°
Reaches altitude 10° 18:01:41 10° 162° (SSE) 1,982 5.1 -17.5°
Maximum altitude 18:06:00 81° 76° (ENE) 634 2.4 -18.3°
Drops below altitude 10° 18:10:21 10° 349° (N) 1,997 5.2 -19.1°
Sets 18:12:32 0° 349° (N) 2,907 6.0 -19.5°
